Погода в Берёзовке

Россия / Республика Крым     45°34′39″N   33°20′38″E
темп.,
°C
ветер,
м/с
пор.,
м/с
влажн.,
%
обл.,
%
осадки,
мм/ч
давл.,
гПа
погр.,
м
19 января, ср
ср1900:00−2ссз71061100 0.0 10191092
03:00−2ссз71063100 0.1 10211091
06:00−3ссз6972100 0.1 10221080
09:00−3ссз7976100 0.1 10241037
12:00−2ссз6768100 0.1 10241044
15:00−1ссз6862100 0.1 10241201
18:00−3ссз477176 0.0 1024211
21:00−3ссз24747 0.0 102484
20 января, чт
чт2000:00−4зсз11695 0.0 102413
03:00−4юз22655 0.0 102412
06:00−3ю33655 0.0 102232
09:00−2ю337011 0.0 102155
12:00+5юз795780 0.0 10201358
15:00+6юз8116253 0.0 10171345
18:00+4юз7147722 0.0 1015346
21:00+5юз8147467 0.1 1013491
21 января, пт
пт2100:00+3юз511765 0.1 1013188
03:00+2юз4977100 0.1 1012142
06:00+3зюз51180100 0.0 1012225
09:00+3з4981100 0.0 1013230
12:00+4сз6767100 0.0 1015700
15:00+3сз4554100 0.0 1015771
18:00+1ссз2460100 0.0 1015244
21:00+1ссз2557100 0.1 1015182
22 января, сб
сб2200:000ссз2453100 0.0 101691
03:00−1з225458 0.0 101620
06:00−1з1158100 0.0 101611
09:00−1ююз225592 0.0 101635
12:00+2з3449100 0.0 10171274
15:00+2сз4448100 0.1 10171299
18:00−1сз336199 0.0 101827
21:00−2ссв1163100 0.0 101912
23 января, вс
вс2300:00−1св2363100 0.0 101947
03:00−1св3667100 0.0 1019152
06:00−1св486399 0.0 1019281
09:00−2св4965100 0.0 1019336
12:00+1св81051100 0.0 1018796
15:00+1ссв81155100 0.0 1016988
18:00−1ссв91592100 0.5 1016828
21:00−2ссв111793100 1.3 1014791